Weather in Nemovichi

Ukraine / Rovno District     51°15′32″N   26°37′56″E
temp.,
°C
wind,
m/s
gust,
m/s
humid.,
%
clouds,
%
prec.,
mm/h
press.,
hPa
HPBL,
m
9 december, thu
thu923:00−4ne3694100 0.1 1015282
02:00−4ne3692100 0.2 1015289
05:00−3ene3691100 0.1 1015286
08:00−3ene3791100 0.1 1015283
11:00−2e3894100 0.3 1016297
14:00−1e3894100 0.4 1015306
17:00−1e4994100 0.0 1015326
20:000ese41096100 0.0 1015368
10 december, fri
fri1023:00+1ese41198100 0.0 1015435
02:00+2ese51298100 0.0 1014391
05:00+2ese61497100 0.0 1012513
08:00+3se61495100 0.0 1011632
11:00+3se61497100 0.1 1010516
14:00+4ese61498100 0.5 1008508
17:00+5ese71798100 0.3 1007573
20:00+7se71795100 1.4 1006691
11 december, sat
sat1123:00+8se71592100 0.3 1006668
02:00+8se71689100 1.6 1006724
05:00+9se81686100 0.4 1007976
08:00+7se71490100 2.0 1008955
11:00+5ssw2497100 2.8 1010363
14:00+3w4796100 5.9 1012396
17:00+3wsw3697100 0.4 1015450
20:00+2ssw3587100 0.4 1018535
12 december, sun
sun1223:00+2wsw1488100 0.0 1019332
02:00+2ne2289100 0.0 1020115
05:00+2nne3695100 1.3 1020262
08:00+2nne51198100 10.9 1019399
11:00+4ene51098100 7.0 1018384
14:00+5ene51088100 8.6 1017464
17:00+5ene51088100 0.0 1018451
20:00+3ene5118895 0.0 1018458
13 december, mon
mon1323:00+3ene51088100 0.5 1018449
02:00+3ene51192100 3.6 1018504
05:00+3ene41092100 1.3 1018487
08:00+2ene4990100 1.7 1018519
11:00+1ne4998100 2.3 1018393
14:00+1ne37100100 4.9 1018217
17:000ene37100100 3.9 1019235
20:000ne3699100 6.3 1019323